METEOR 2-8 DEB

Satellite information

Favourite Embed

Satellite Type and Status

DEBRISIN ORBIT

Key statistics

Satellite METEOR 2-8 DEB at a glance.

Uptime

15810

Days in orbit

Revolutions

≈ 14.3

Per day

Orbit

LEO

Low Earth Orbit

Inclination

82.5

Latest

Satellite identification and parameters

Extended collection of information and parameters for METEOR 2-8 DEB.

Object identification

Identified? True

Debris? True

Object name: METEOR 2-8 DEB

International designator: 1982-025AG

Object number (NORAD): 36346

Object ID (CCSDS): 36346

Country: COMMONWEALTH OF INDEPENDENT STATES (CIS)

Current information (Y/N): Y

RCS size: SMALL

Orbital parameters

Period: 100.624 minutes

Inclination: 82.5395 deg

SMA: 7166.281 km

Apoapsis: 789.014 km

Periapsis: 787.279 km

RAAN: 120.4116 deg

Eccentricy: 0.0001211

Argument of periapsis: 280.2531 deg

Mean anomaly: 79.8519 deg

Mean motion: 14.31073611 rev/day

Mean motion (dot): 0.00004142 rev/day2

B* drag term: 0.0015664 1/REarth

Two-line elements (TLE)

Creation date: July 2, 2025, 2:26 p.m.

Reference frame: TEME

Reference center: EARTH

Epoch: July 2, 2025, 12:39 p.m. UTC

TLE line 0: 0 METEOR 2-8 DEB

TLE line 1: 1 36346U 82025AG 25183.52712895 .00004142 00000-0 15664-2 0 9992

TLE line 2: 2 36346 82.5395 120.4116 0001211 280.2531 79.8519 14.31073611 84689

Live tracking on map

Real-time ground track for satellite METEOR 2-8 DEB.

In-orbit conjunctions

A list of the most updated potential collisions computed for object METEOR 2-8 DEB.

Target Orbit TCA Probability of collision Miss distance Type
CZ-6A DEB LEO 2024-11-08 23:14:22 0.0001326884 930.0 (m) DEBRIS
PSLV R/B SSO 2024-08-15 13:22:01 0.0005628695 113.0 (m) ROCKET BODY
NOAA 16 DEB SSO 2024-07-07 19:14:16 0.0001412222 76.0 (m) DEBRIS

Associated space launch

Second generation soviet meteorological satellite

METEOR 2-8 DEB was lifted into orbit during the mission ‘Tsiklon-3 | Meteor-2 8’, on board a Tsiklon-3 space rocket.

The launch took place on March 25, 1982, 9:50 a.m. from 32/1.

For more information about the launch, click the button.

Launch to space Tsiklon-3 | Meteor-2 8
Tsiklon-3 | Meteor-2 8

Agency: N/A

Status: Launch Successful

Launch date: March 25, 1982, 9:50 a.m. UTC

Rocket: Tsiklon-3

Launch pad: 32/1

Location: Plesetsk Cosmodrome, Russian Federation

...

Latest news about this satellite

There are no fresh news available about this satellite. Check back as we update our databases every day.


Newsletter sign-up

Weekly statistics, charts and insights to help you stay on top of the space industry.